Weather History for KCDW - June, 2013

Change the Weather History Date:

Sunday, June 2, 2013

  Actual Average Record
Temperature  
Mean Temperature 80 °F -  
Max Temperature 88 °F 78 °F 90 °F (1962)
Min Temperature 73 °F 54 °F 42 °F (1966)
Cooling Degree Days 15    
Growing Degree Days 30 (Base 50)    
Moisture  
Dew Point 68 °F    
Average Humidity 73    
Maximum Humidity 96    
Minimum Humidity 51    
Precipitation  
Precipitation 0.13 in - - ()
Sea Level Pressure  
Sea Level Pressure 29.84 in    
Wind  
Wind Speed 5 mph (SW)    
Max Wind Speed 14 mph    
Max Gust Speed 23 mph    
Visibility 9 miles    
Events Rain    
Averages and records for this station are not official NWS values.
T = Trace of Precipitation, MM = Missing Value Source: NWS Daily Summary

Daily Weather History Graph

Daily Weather History Graph

Search for Another Location

Airport or City:

Trip Planner

Search our weather history database for the weather conditions in past years. The results will help you decide how hot, cold, wet, or windy it might be!

Date:

Astronomy

Jun. 02, 2013 Rise Set
Actual Time 5:27 AM EDT 8:23 PM EDT
Civil Twilight 4:54 AM EDT 8:56 PM EDT
Nautical Twilight 4:12 AM EDT 9:38 PM EDT
Astronomical Twilight 3:24 AM EDT 10:26 PM EDT
Moon 1:54 AM EDT (6/2) 2:49 PM EDT (6/2)
Length of Visible Light 16h 02m
Length of Day
14h 56m
Waning Crescent, 31% of the Moon is Illuminated
Jun 2
Waning Crescent
Jun 8
New
Jun 16
First Quarter
Jun 23
Full
Jun 30
Last Quarter

Hourly Weather History & Observations

Time (EDT) Temp. Heat Index Dew Point Humidity Pressure Visibility Wind Dir Wind Speed Gust Speed Precip Events Conditions
12:53 AM 78.1 °F - 69.1 °F 74% 29.91 in 10.0 mi SSW 4.6 mph - N/A   Clear
1:53 AM 77.0 °F - 68.0 °F 74% 29.90 in 10.0 mi Variable 4.6 mph - N/A   Clear
2:53 AM 75.0 °F - 68.0 °F 79% 29.88 in 10.0 mi SW 3.5 mph - N/A   Clear
3:53 AM 73.9 °F - 68.0 °F 82% 29.88 in 10.0 mi Calm Calm - N/A   Clear
4:53 AM 73.0 °F - 68.0 °F 84% 29.88 in 10.0 mi Variable 3.5 mph - N/A   Clear
5:53 AM 73.0 °F - 66.9 °F 81% 29.87 in 10.0 mi Variable 3.5 mph - N/A   Clear
6:53 AM 73.0 °F - 66.9 °F 81% 29.88 in 10.0 mi Variable 5.8 mph - N/A   Clear
7:53 AM 75.0 °F - 68.0 °F 79% 29.88 in 10.0 mi Variable 4.6 mph - N/A   Clear
8:53 AM 78.1 °F - 66.9 °F 68% 29.87 in 10.0 mi Variable 4.6 mph - N/A   Clear
9:53 AM 80.1 °F 82.3 °F 66.9 °F 64% 29.86 in 10.0 mi SSW 8.1 mph - N/A   Clear
10:53 AM 82.0 °F 84.9 °F 68.0 °F 62% 29.85 in 10.0 mi SW 9.2 mph - N/A   Scattered Clouds
11:53 AM 84.0 °F 86.5 °F 66.9 °F 56% 29.85 in 10.0 mi WSW 8.1 mph - N/A   Scattered Clouds
12:53 PM 84.9 °F 87.6 °F 66.9 °F 55% 29.84 in 10.0 mi SW 8.1 mph - N/A   Partly Cloudy
1:53 PM 84.9 °F 88.2 °F 68.0 °F 57% 29.81 in 10.0 mi SSW 10.4 mph - N/A   Mostly Cloudy
2:53 PM 87.1 °F 90.6 °F 68.0 °F 53% 29.80 in 10.0 mi SW 8.1 mph - N/A   Partly Cloudy
3:53 PM 86.0 °F 88.8 °F 66.9 °F 53% 29.80 in 10.0 mi SW 9.2 mph 23.0 mph N/A   Scattered Clouds
4:53 PM 86.0 °F 88.2 °F 66.0 °F 51% 29.79 in 10.0 mi WSW 9.2 mph - N/A   Clear
5:53 PM 84.9 °F 87.1 °F 66.0 °F 53% 29.78 in 10.0 mi SW 8.1 mph 18.4 mph N/A   Clear
6:53 PM 82.9 °F 85.4 °F 66.9 °F 58% 29.79 in 10.0 mi Variable 4.6 mph - N/A   Partly Cloudy
7:53 PM 79.0 °F - 69.1 °F 72% 29.83 in 4.0 mi WSW 13.8 mph 23.0 mph 0.02 in Rain Heavy Rain
7:56 PM 77.0 °F - 69.8 °F 78% 29.82 in 1.8 mi West 9.2 mph 23.0 mph 0.05 in Rain Heavy Rain
8:09 PM 73.4 °F - 71.6 °F 94% 29.81 in 3.0 mi West 3.5 mph - 0.09 in Rain Light Rain
8:53 PM 73.0 °F - 71.1 °F 93% 29.83 in 10.0 mi Calm Calm - 0.09 in   Mostly Cloudy
9:53 PM 73.0 °F - 72.0 °F 96% 29.83 in 10.0 mi Calm Calm - N/A   Clear
10:53 PM 73.0 °F - 72.0 °F 96% 29.83 in 10.0 mi Calm Calm - 0.02 in   Mostly Cloudy
11:53 PM 73.0 °F - 72.0 °F 96% 29.84 in 9.0 mi Calm Calm - 0.00 in Rain Light Rain